Location: Moydans
(44.3997°N, 5.5038°E)
Time: 03:41:17
(UTC+02:00)

Nauka - Pass Details

Date: 01 October 2021
Orbit: 417 x 423 km, 51.6° (Epoch: 24 October)

Event Time Altitude Azimuth Distance (km) Brightness Sun altitude
Rises 21:52:12 0° 296° (WNW) 2,365 ? -27.6°
Reaches altitude 10° 21:54:22 10° 289° (WNW) 1,499 ? -28.0°
Enters shadow 21:55:34 19° 279° (W) 1,061 ? -28.2°
